| time (UTC) | temp F | wind direction | speed MPH | gust MPH | rain 1hr in | rain 24hr in | rain mn in | humidity % | barometer mb |
| 20260504050541 | 77 | 236 | 4.0 | 10.0 | 0.00 | 0.90 | 0.90 | 97 | 1017.1 |
| 20260504045539 | 78 | 249 | 1.0 | 7.0 | 0.00 | 0.90 | 0.90 | 98 | 1017.2 |
| 20260504045041 | 78 | 254 | 2.0 | 7.0 | 0.00 | 0.90 | 0.90 | 98 | 1017.1 |
| 20260504044546 | 77 | 178 | 2.0 | 7.0 | 0.00 | 0.90 | 0.90 | 98 | 1017.2 |
| 20260504044037 | 78 | 215 | 3.0 | 8.0 | 0.00 | 0.90 | 0.90 | 98 | 1017.0 |
| 20260504043541 | 78 | 230 | 2.0 | 8.0 | 0.00 | 0.90 | 0.90 | 98 | 1017.1 |
| 20260504043052 | 78 | 271 | 4.0 | 8.0 | 0.00 | 0.90 | 0.90 | 98 | 1017.3 |
| 20260504042541 | 78 | 252 | 3.0 | 9.0 | 0.00 | 0.90 | 0.90 | 98 | 1017.2 |
| 20260504042041 | 78 | 257 | 3.0 | 9.0 | 0.00 | 0.90 | 0.90 | 98 | 1017.1 |
| 20260504041553 | 78 | 240 | 4.0 | 9.0 | 0.00 | 0.90 | 0.90 | 98 | 1017.0 |
| 20260504041040 | 78 | 234 | 4.0 | 9.0 | 0.00 | 0.90 | 0.90 | 98 | 1017.0 |
| 20260504040544 | 78 | 251 | 4.0 | 9.0 | 0.00 | 0.90 | 0.90 | 98 | 1017.0 |
| 20260504040111 | 78 | 240 | 3.0 | 9.0 | 0.00 | 0.90 | 0.90 | 98 | 1017.0 |
| 20260504035540 | 78 | 252 | 4.0 | 9.0 | 0.00 | 0.90 | 0.90 | 98 | 1017.1 |
| 20260504035041 | 78 | 250 | 2.0 | 6.0 | 0.00 | 0.90 | 0.90 | 98 | 1017.1 |
| 20260504034548 | 78 | 294 | 1.0 | 5.0 | 0.01 | 0.90 | 0.90 | 98 | 1017.2 |
| 20260504034041 | 78 | 0 | 2.0 | 9.0 | 0.01 | 0.90 | 0.90 | 98 | 1017.0 |
| 20260504033541 | 78 | 275 | 3.0 | 9.0 | 0.01 | 0.90 | 0.90 | 98 | 1016.9 |
| 20260504033046 | 78 | 300 | 4.0 | 8.0 | 0.01 | 0.90 | 0.90 | 98 | 1017.1 |
| 20260504032541 | 78 | 265 | 4.0 | 8.0 | 0.01 | 0.90 | 0.90 | 98 | 1017.0 |
| 20260504032041 | 78 | 258 | 2.0 | 6.0 | 0.01 | 0.90 | 0.90 | 98 | 1016.9 |
| 20260504031545 | 78 | 0 | 1.0 | 7.0 | 0.02 | 0.90 | 0.90 | 98 | 1016.9 |
| 20260504031040 | 78 | 259 | 3.0 | 7.0 | 0.02 | 0.90 | 0.90 | 98 | 1016.8 |
| 20260504030540 | 78 | 240 | 1.0 | 7.0 | 0.03 | 0.90 | 0.90 | 98 | 1016.8 |
| 20260504030045 | 78 | 217 | 1.0 | 8.0 | 0.03 | 0.90 | 0.90 | 97 | 1016.8 |
| 20260504025542 | 78 | 278 | 4.0 | 8.0 | 0.03 | 0.90 | 0.90 | 97 | 1016.6 |
| 20260504025045 | 78 | 238 | 2.0 | 6.0 | 0.03 | 0.90 | 0.90 | 97 | 1016.6 |
| 20260504024547 | 78 | 242 | 2.0 | 5.0 | 0.02 | 0.89 | 0.89 | 97 | 1016.6 |
| 20260504024040 | 78 | 196 | 1.0 | 8.0 | 0.02 | 0.89 | 0.89 | 97 | 1016.6 |
| 20260504023539 | 78 | 202 | 2.0 | 8.0 | 0.02 | 0.89 | 0.89 | 97 | 1016.6 |
| 20260504023059 | 79 | 302 | 3.0 | 8.0 | 0.02 | 0.89 | 0.89 | 97 | 1016.6 |
| 20260504022542 | 79 | 171 | 1.0 | 4.0 | 0.02 | 0.89 | 0.89 | 97 | 1016.5 |
| 20260504022040 | 79 | 0 | 0.0 | 8.0 | 0.02 | 0.89 | 0.89 | 97 | 1016.5 |
| 20260504021550 | 79 | 317 | 2.0 | 8.0 | 0.01 | 0.88 | 0.88 | 97 | 1016.4 |
| 20260504021040 | 79 | 223 | 4.0 | 10.0 | 0.01 | 0.88 | 0.88 | 97 | 1016.3 |
| 20260504020540 | 79 | 259 | 5.0 | 13.0 | 0.00 | 0.87 | 0.87 | 97 | 1016.3 |
| 20260504020048 | 79 | 284 | 7.0 | 13.0 | 0.00 | 0.87 | 0.87 | 97 | 1016.1 |
| 20260504015540 | 79 | 294 | 7.0 | 13.0 | 0.00 | 0.87 | 0.87 | 97 | 1016.1 |
| 20260504015042 | 79 | 246 | 5.0 | 11.0 | 0.00 | 0.87 | 0.87 | 97 | 1016.1 |
| 20260504014600 | 79 | 306 | 6.0 | 10.0 | 0.00 | 0.87 | 0.87 | 97 | 1015.9 |
| 20260504014040 | 79 | 251 | 4.0 | 9.0 | 0.00 | 0.87 | 0.87 | 97 | 1016.0 |
| 20260504013540 | 79 | 279 | 2.0 | 9.0 | 0.00 | 0.87 | 0.87 | 97 | 1016.0 |
| 20260504013049 | 79 | 295 | 5.0 | 9.0 | 0.00 | 0.87 | 0.87 | 97 | 1015.9 |
| 20260504012541 | 79 | 231 | 4.0 | 9.0 | 0.00 | 0.87 | 0.87 | 97 | 1015.9 |
| 20260504012040 | 79 | 273 | 6.0 | 9.0 | 0.00 | 0.87 | 0.87 | 97 | 1015.9 |
| 20260504011552 | 79 | 274 | 3.0 | 9.0 | 0.00 | 0.87 | 0.87 | 97 | 1015.8 |
| 20260504011041 | 79 | 290 | 4.0 | 9.0 | 0.00 | 0.87 | 0.87 | 97 | 1015.8 |
| 20260504010540 | 79 | 242 | 5.0 | 9.0 | 0.00 | 0.87 | 0.87 | 97 | 1015.9 |
| 20260504010054 | 80 | 237 | 4.0 | 8.0 | 0.00 | 0.87 | 0.87 | 97 | 1015.8 |
| 20260504005542 | 80 | 253 | 2.0 | 8.0 | 0.00 | 0.87 | 0.87 | 96 | 1015.7 |
| 20260504005040 | 80 | 123 | 3.0 | 8.0 | 0.00 | 0.87 | 0.87 | 97 | 1015.8 |
| 20260504004552 | 80 | 172 | 3.0 | 10.0 | 0.00 | 0.87 | 0.87 | 96 | 1015.6 |
| 20260504004038 | 80 | 190 | 4.0 | 10.0 | 0.00 | 0.87 | 0.87 | 96 | 1015.5 |
| 20260504003538 | 80 | 257 | 2.0 | 8.0 | 0.00 | 0.87 | 0.87 | 96 | 1015.5 |
| 20260504003102 | 80 | 200 | 3.0 | 8.0 | 0.00 | 0.87 | 0.87 | 96 | 1015.3 |
| 20260504002540 | 80 | 250 | 3.0 | 8.0 | 0.00 | 0.87 | 0.87 | 96 | 1015.2 |
| 20260504002039 | 80 | 238 | 2.0 | 10.0 | 0.00 | 0.87 | 0.87 | 96 | 1015.1 |
| 20260504001604 | 80 | 244 | 5.0 | 10.0 | 0.00 | 0.87 | 0.87 | 96 | 1015.1 |
| 20260504001038 | 80 | 254 | 5.0 | 10.0 | 0.00 | 0.87 | 0.87 | 96 | 1014.9 |
| 20260504000538 | 80 | 263 | 4.0 | 10.0 | 0.00 | 0.87 | 0.87 | 96 | 1014.7 |
| 20260504000108 | 80 | 263 | 5.0 | 10.0 | 0.00 | 0.87 | 0.87 | 96 | 1014.7 |
| 20260503235538 | 80 | 257 | 7.0 | 10.0 | 0.00 | 0.87 | 0.87 | 95 | 1014.7 |
| 20260503235040 | 80 | 250 | 4.0 | 8.0 | 0.00 | 0.87 | 0.87 | 95 | 1014.7 |
| 20260503234552 | 80 | 203 | 3.0 | 8.0 | 0.00 | 0.87 | 0.87 | 95 | 1014.7 |
| 20260503234039 | 80 | 199 | 3.0 | 7.0 | 0.00 | 0.87 | 0.87 | 95 | 1014.7 |
| 20260503233540 | 80 | 182 | 3.0 | 7.0 | 0.00 | 0.87 | 0.87 | 95 | 1014.7 |
| 20260503233048 | 80 | 130 | 2.0 | 8.0 | 0.00 | 0.87 | 0.87 | 94 | 1014.5 |
| 20260503232537 | 80 | 183 | 3.0 | 8.0 | 0.00 | 0.87 | 0.87 | 94 | 1014.4 |
| 20260503232040 | 80 | 205 | 5.0 | 8.0 | 0.00 | 0.87 | 0.87 | 94 | 1014.2 |
| 20260503231550 | 80 | 227 | 4.0 | 10.0 | 0.00 | 0.87 | 0.87 | 94 | 1014.2 |
| 20260503231038 | 80 | 240 | 5.0 | 12.0 | 0.00 | 0.87 | 0.87 | 93 | 1014.2 |
| 20260503230537 | 81 | 230 | 5.0 | 12.0 | 0.00 | 0.87 | 0.87 | 93 | 1014.2 |
| 20260503230050 | 81 | 249 | 4.0 | 10.0 | 0.00 | 0.87 | 0.87 | 93 | 1014.2 |
| 20260503225538 | 81 | 200 | 1.0 | 5.0 | 0.00 | 0.87 | 0.87 | 94 | 1014.2 |
| 20260503225040 | 80 | 235 | 2.0 | 5.0 | 0.00 | 0.87 | 0.87 | 94 | 1014.2 |
| 20260503224549 | 80 | 246 | 1.0 | 7.0 | 0.01 | 0.87 | 0.87 | 95 | 1014.3 |
| 20260503224040 | 80 | 254 | 3.0 | 7.0 | 0.01 | 0.87 | 0.87 | 95 | 1014.3 |
| 20260503223541 | 80 | 166 | 2.0 | 5.0 | 0.08 | 0.87 | 0.87 | 96 | 1014.4 |
| 20260503223050 | 80 | 0 | 2.0 | 5.0 | 0.18 | 0.87 | 0.87 | 96 | 1014.4 |
| 20260503222540 | 80 | 236 | 1.0 | 5.0 | 0.31 | 0.87 | 0.87 | 96 | 1014.2 |
| 20260503222045 | 80 | 207 | 1.0 | 7.0 | 0.57 | 0.87 | 0.87 | 97 | 1014.1 |
| 20260503221553 | 80 | 0 | 1.0 | 7.0 | 0.85 | 0.87 | 0.87 | 97 | 1014.1 |
| 20260503221040 | 80 | 247 | 1.0 | 5.0 | 0.87 | 0.87 | 0.87 | 97 | 1014.1 |
| 20260503220540 | 80 | 174 | 1.0 | 4.0 | 0.87 | 0.87 | 0.87 | 96 | 1014.0 |
| 20260503220052 | 80 | 191 | 0.0 | 5.0 | 0.87 | 0.87 | 0.87 | 96 | 1014.1 |
| 20260503215540 | 80 | 196 | 2.0 | 6.0 | 0.87 | 0.87 | 0.87 | 96 | 1014.4 |
| 20260503215039 | 80 | 182 | 3.0 | 6.0 | 0.87 | 0.87 | 0.87 | 96 | 1014.6 |
| 20260503214549 | 80 | 222 | 3.0 | 6.0 | 0.86 | 0.86 | 0.86 | 95 | 1014.6 |
| 20260503214040 | 80 | 225 | 1.0 | 4.0 | 0.86 | 0.86 | 0.86 | 95 | 1014.5 |
| 20260503213543 | 80 | 0 | 0.0 | 8.0 | 0.79 | 0.79 | 0.79 | 94 | 1014.7 |
| 20260503213052 | 80 | 272 | 2.0 | 8.0 | 0.68 | 0.68 | 0.68 | 93 | 1014.9 |
| 20260503212540 | 81 | 259 | 2.0 | 8.0 | 0.55 | 0.55 | 0.55 | 91 | 1015.0 |
| 20260503212037 | 83 | 275 | 3.0 | 14.0 | 0.26 | 0.26 | 0.26 | 90 | 1015.2 |
| 20260503211549 | 84 | 53 | 1.0 | 14.0 | 0.02 | 0.02 | 0.02 | 89 | 1015.0 |
| 20260503211037 | 84 | 325 | 6.0 | 14.0 | 0.00 | 0.00 | 0.00 | 88 | 1014.9 |
| 20260503210540 | 85 | 248 | 3.0 | 10.0 | 0.00 | 0.00 | 0.00 | 86 | 1014.7 |
| 20260503210047 | 85 | 284 | 4.0 | 10.0 | 0.00 | 0.00 | 0.00 | 87 | 1014.7 |
| 20260503205540 | 85 | 225 | 6.0 | 10.0 | 0.00 | 0.00 | 0.00 | 86 | 1014.9 |
| 20260503205040 | 85 | 247 | 4.0 | 12.0 | 0.00 | 0.00 | 0.00 | 86 | 1014.7 |
| 20260503204550 | 85 | 284 | 6.0 | 12.0 | 0.00 | 0.00 | 0.00 | 86 | 1014.6 |
| 20260503204040 | 85 | 309 | 7.0 | 12.0 | 0.00 | 0.00 | 0.00 | 86 | 1014.9 |
| 20260503203543 | 85 | 264 | 6.0 | 10.0 | 0.00 | 0.00 | 0.00 | 86 | 1015.0 |
| 20260503203047 | 85 | 309 | 3.0 | 11.0 | 0.00 | 0.00 | 0.00 | 86 | 1015.0 |
| 20260503202538 | 85 | 271 | 7.0 | 15.0 | 0.00 | 0.00 | 0.00 | 86 | 1015.0 |
| 20260503202039 | 85 | 295 | 7.0 | 15.0 | 0.00 | 0.00 | 0.00 | 86 | 1015.1 |
| 20260503201548 | 85 | 277 | 6.0 | 13.0 | 0.00 | 0.00 | 0.00 | 86 | 1015.2 |
| 20260503201044 | 85 | 292 | 5.0 | 14.0 | 0.00 | 0.00 | 0.00 | 86 | 1015.2 |
| 20260503200537 | 85 | 288 | 8.0 | 14.0 | 0.00 | 0.00 | 0.00 | 86 | 1015.2 |
| 20260503200056 | 85 | 300 | 4.0 | 15.0 | 0.00 | 0.00 | 0.00 | 86 | 1015.2 |
| 20260503195540 | 85 | 270 | 6.0 | 15.0 | 0.00 | 0.00 | 0.00 | 86 | 1015.3 |
| 20260503195040 | 85 | 311 | 7.0 | 12.0 | 0.00 | 0.00 | 0.00 | 86 | 1015.3 |
| 20260503194549 | 85 | 272 | 7.0 | 12.0 | 0.00 | 0.00 | 0.00 | 86 | 1015.5 |
| 20260503194041 | 85 | 286 | 9.0 | 12.0 | 0.00 | 0.00 | 0.00 | 86 | 1015.6 |
| 20260503193540 | 85 | 276 | 4.0 | 13.0 | 0.00 | 0.00 | 0.00 | 86 | 1015.6 |
| 20260503193057 | 85 | 290 | 8.0 | 13.0 | 0.00 | 0.00 | 0.00 | 86 | 1015.7 |
| 20260503192540 | 85 | 279 | 6.0 | 14.0 | 0.00 | 0.00 | 0.00 | 86 | 1015.8 |
| 20260503192042 | 85 | 296 | 7.0 | 18.0 | 0.00 | 0.00 | 0.00 | 86 | 1015.9 |
| 20260503191549 | 86 | 290 | 9.0 | 18.0 | 0.00 | 0.00 | 0.00 | 86 | 1015.9 |
| 20260503191041 | 86 | 269 | 7.0 | 16.0 | 0.00 | 0.00 | 0.00 | 85 | 1015.9 |
| 20260503190540 | 86 | 296 | 10.0 | 16.0 | 0.00 | 0.00 | 0.00 | 85 | 1016.0 |
| 20260503190052 | 86 | 272 | 7.0 | 17.0 | 0.00 | 0.00 | 0.00 | 85 | 1016.0 |
| 20260503185540 | 86 | 264 | 9.0 | 17.0 | 0.00 | 0.00 | 0.00 | 85 | 1016.1 |
| 20260503185040 | 86 | 290 | 7.0 | 15.0 | 0.00 | 0.00 | 0.00 | 84 | 1016.3 |
| 20260503184544 | 87 | 255 | 8.0 | 14.0 | 0.00 | 0.00 | 0.00 | 83 | 1016.2 |
| 20260503184042 | 87 | 277 | 6.0 | 14.0 | 0.00 | 0.00 | 0.00 | 84 | 1016.2 |
| 20260503183539 | 86 | 275 | 8.0 | 15.0 | 0.00 | 0.00 | 0.00 | 84 | 1016.4 |
| 20260503183107 | 86 | 262 | 7.0 | 16.0 | 0.00 | 0.00 | 0.00 | 85 | 1016.5 |
| 20260503182536 | 86 | 285 | 8.0 | 16.0 | 0.00 | 0.00 | 0.00 | 84 | 1016.5 |
| 20260503182039 | 86 | 277 | 9.0 | 16.0 | 0.00 | 0.00 | 0.00 | 84 | 1016.6 |
| 20260503181614 | 86 | 272 | 5.0 | 16.0 | 0.00 | 0.00 | 0.00 | 85 | 1016.7 |
| 20260503181038 | 85 | 319 | 7.0 | 16.0 | 0.00 | 0.00 | 0.00 | 85 | 1016.8 |
| 20260503180541 | 85 | 286 | 10.0 | 16.0 | 0.00 | 0.00 | 0.00 | 86 | 1016.9 |
| 20260503180052 | 84 | 261 | 6.0 | 13.0 | 0.00 | 0.00 | 0.00 | 86 | 1016.9 |
| 20260503175540 | 85 | 277 | 6.0 | 13.0 | 0.00 | 0.00 | 0.00 | 86 | 1017.0 |
| 20260503175043 | 85 | 257 | 5.0 | 13.0 | 0.00 | 0.00 | 0.00 | 86 | 1017.1 |
| 20260503174553 | 84 | 281 | 7.0 | 13.0 | 0.00 | 0.00 | 0.00 | 86 | 1017.1 |
| 20260503174039 | 84 | 292 | 8.0 | 16.0 | 0.00 | 0.00 | 0.00 | 86 | 1017.2 |
| 20260503173540 | 84 | 300 | 9.0 | 17.0 | 0.00 | 0.00 | 0.00 | 86 | 1017.3 |
| 20260503173054 | 84 | 273 | 9.0 | 17.0 | 0.00 | 0.00 | 0.00 | 86 | 1017.3 |
| 20260503172543 | 84 | 284 | 9.0 | 17.0 | 0.00 | 0.00 | 0.00 | 86 | 1017.4 |
| 20260503172043 | 85 | 286 | 10.0 | 15.0 | 0.00 | 0.00 | 0.00 | 85 | 1017.4 |
| 20260503171555 | 85 | 290 | 8.0 | 14.0 | 0.00 | 0.00 | 0.00 | 85 | 1017.4 |
| 20260503171037 | 85 | 268 | 7.0 | 16.0 | 0.00 | 0.00 | 0.00 | 86 | 1017.5 |
| 20260503170541 | 84 | 312 | 6.0 | 16.0 | 0.00 | 0.00 | 0.00 | 86 | 1017.4 |
| 20260503150540 | 81 | 271 | 11.0 | 18.0 | 0.00 | 0.00 | 0.00 | 89 | 1016.4 |
| 20260503131042 | 80 | 246 | 8.0 | 17.0 | 0.00 | 0.00 | 0.00 | 93 | 1015.5 |
| 20260503130539 | 80 | 239 | 7.0 | 14.0 | 0.00 | 0.00 | 0.00 | 93 | 1015.5 |
| 20260503110538 | 81 | 257 | 4.0 | 10.0 | 0.00 | 0.00 | 0.00 | 95 | 1014.1 |
| 20260503100104 | 82 | 201 | 2.0 | 8.0 | 0.00 | 0.00 | 0.00 | 94 | 1013.5 |
| 20260503081549 | 82 | 0 | 1.0 | 6.0 | 0.00 | 0.00 | 0.00 | 93 | 1014.1 |
| 20260503081037 | 82 | 317 | 3.0 | 7.0 | 0.00 | 0.00 | 0.00 | 93 | 1014.1 |
| 20260503080538 | 82 | 270 | 2.0 | 7.0 | 0.00 | 0.00 | 0.00 | 93 | 1014.1 |
| 20260503072541 | 82 | 327 | 6.0 | 13.0 | 0.00 | 0.00 | 0.00 | 93 | 1014.4 |
| 20260503072037 | 82 | 281 | 6.0 | 11.0 | 0.00 | 0.00 | 0.00 | 93 | 1014.5 |
| 20260503071558 | 82 | 351 | 5.0 | 11.0 | 0.00 | 0.00 | 0.00 | 93 | 1014.5 |
| 20260503071039 | 82 | 339 | 4.0 | 10.0 | 0.00 | 0.00 | 0.00 | 93 | 1014.6 |
| 20260503070537 | 82 | 327 | 4.0 | 11.0 | 0.00 | 0.00 | 0.00 | 92 | 1014.6 |
| 20260503070110 | 82 | 326 | 6.0 | 11.0 | 0.00 | 0.00 | 0.00 | 92 | 1014.8 |
| 20260503060108 | 83 | 330 | 6.0 | 10.0 | 0.00 | 0.00 | 0.00 | 92 | 1015.6 |
| 20260503055039 | 83 | 247 | 5.0 | 10.0 | 0.00 | 0.00 | 0.00 | 92 | 1015.6 |
| 20260503054549 | 83 | 344 | 5.0 | 9.0 | 0.00 | 0.00 | 0.00 | 92 | 1015.7 |
| 20260503054038 | 83 | 291 | 3.0 | 9.0 | 0.00 | 0.00 | 0.00 | 92 | 1015.8 |
| 20260503053537 | 83 | 36 | 4.0 | 9.0 | 0.00 | 0.00 | 0.00 | 92 | 1015.8 |